Zurück zum Katalog

STARLINK-32294

AktivKommunikationVLEO
NORAD 61675·PAYLOAD·🇺🇸 United States

Gestartet Oct 26, 2024 von Cape Canaveral Space Force Station

Loading…

Nächste Überflüge (nächste 24 Stunden)

TLE

AktuellSource: CelesTrak SupGP

Epoche: Sep 15, 2026, 02:28 UTC

1 61675C 24193Q   26258.10326389  .00013892  00000+0  44666-3 0  2588
2 61675  53.1592 289.7125 0001347  90.1818  54.9969 15.31700637    14

Verfolge STARLINK-32294 in Echtzeit mit AllMySat

Download on the App Store